Year,Month,Day,Hour,Minute,Value (Times are PST for temperature in C)
2006,06,27,00,00,20.00
2006,06,27,00,01,20.00
2006,06,27,00,02,20.00
2006,06,27,00,03,20.00
2006,06,27,00,04,20.00
2006,06,27,00,05,20.00
2006,06,27,00,06,20.00
2006,06,27,00,07,20.00
2006,06,27,00,08,20.00
2006,06,27,00,09,20.00
2006,06,27,00,10,20.00
2006,06,27,00,11,20.00
2006,06,27,00,12,20.00
2006,06,27,00,13,19.90
2006,06,27,00,14,19.90
2006,06,27,00,15,19.90
2006,06,27,00,16,19.90
2006,06,27,00,17,19.90
2006,06,27,00,18,19.80
2006,06,27,00,19,19.80
2006,06,27,00,20,19.80
2006,06,27,00,21,19.80
2006,06,27,00,22,19.80
2006,06,27,00,23,19.70
2006,06,27,00,24,19.70
2006,06,27,00,25,19.60
2006,06,27,00,26,19.60
2006,06,27,00,27,19.60
2006,06,27,00,28,19.60
2006,06,27,00,29,19.60
2006,06,27,00,30,19.50
2006,06,27,00,31,19.50
2006,06,27,00,32,19.50
2006,06,27,00,33,19.50
2006,06,27,00,34,19.40
2006,06,27,00,35,19.40
2006,06,27,00,36,19.40
2006,06,27,00,37,19.40
2006,06,27,00,38,19.40
2006,06,27,00,39,19.40
2006,06,27,00,40,19.30
2006,06,27,00,41,19.30
2006,06,27,00,42,19.20
2006,06,27,00,43,19.20
2006,06,27,00,44,19.10
2006,06,27,00,45,19.00
2006,06,27,00,46,18.90
2006,06,27,00,47,18.80
2006,06,27,00,48,18.80
2006,06,27,00,49,18.70
2006,06,27,00,50,18.70
2006,06,27,00,51,18.60
2006,06,27,00,52,18.60
2006,06,27,00,53,18.50
2006,06,27,00,54,18.40
2006,06,27,00,55,18.40
2006,06,27,00,56,18.30
2006,06,27,00,57,18.30
2006,06,27,00,58,18.30
2006,06,27,00,59,18.20
2006,06,27,01,00,18.10
2006,06,27,01,01,18.10
2006,06,27,01,02,18.00
2006,06,27,01,03,18.00
2006,06,27,01,04,17.90
2006,06,27,01,05,17.90
2006,06,27,01,06,17.90
2006,06,27,01,07,17.90
2006,06,27,01,08,17.90
2006,06,27,01,09,17.80
2006,06,27,01,10,17.80
2006,06,27,01,11,17.80
2006,06,27,01,12,17.80
2006,06,27,01,13,17.80
2006,06,27,01,14,17.80
2006,06,27,01,15,17.80
2006,06,27,01,16,17.80
2006,06,27,01,17,17.80
2006,06,27,01,18,17.80
2006,06,27,01,19,17.80
2006,06,27,01,20,17.80
2006,06,27,01,21,17.80
2006,06,27,01,22,17.80
2006,06,27,01,23,17.80
2006,06,27,01,24,17.80
2006,06,27,01,25,17.80
2006,06,27,01,26,17.80
2006,06,27,01,27,17.80
2006,06,27,01,28,17.70
2006,06,27,01,29,17.70
2006,06,27,01,30,17.70
2006,06,27,01,31,17.70
2006,06,27,01,32,17.70
2006,06,27,01,33,17.70
2006,06,27,01,34,17.70
2006,06,27,01,35,17.70
2006,06,27,01,36,17.70
2006,06,27,01,37,17.70
2006,06,27,01,38,17.70
2006,06,27,01,39,17.60
2006,06,27,01,40,17.60
2006,06,27,01,41,17.50
2006,06,27,01,42,17.50
2006,06,27,01,43,17.40
2006,06,27,01,44,17.40
2006,06,27,01,45,17.30
2006,06,27,01,46,17.20
2006,06,27,01,47,17.20
2006,06,27,01,48,17.10
2006,06,27,01,49,17.10
2006,06,27,01,50,17.00
2006,06,27,01,51,17.00
2006,06,27,01,52,16.90
2006,06,27,01,53,16.90
2006,06,27,01,54,16.80
2006,06,27,01,55,16.80
2006,06,27,01,56,16.80
2006,06,27,01,57,16.80
2006,06,27,01,58,16.80
2006,06,27,01,59,16.80
2006,06,27,02,00,16.70
2006,06,27,02,01,16.70
2006,06,27,02,02,16.70
2006,06,27,02,03,16.70
2006,06,27,02,04,16.70
2006,06,27,02,05,16.60
2006,06,27,02,06,16.60
2006,06,27,02,07,16.50
2006,06,27,02,08,16.50
2006,06,27,02,09,16.40
2006,06,27,02,10,16.40
2006,06,27,02,11,16.40
2006,06,27,02,12,16.30
2006,06,27,02,13,16.30
2006,06,27,02,14,16.20
2006,06,27,02,15,16.20
2006,06,27,02,16,16.20
2006,06,27,02,17,16.10
2006,06,27,02,18,16.10
2006,06,27,02,19,16.00
2006,06,27,02,20,16.00
2006,06,27,02,21,15.90
2006,06,27,02,22,15.90
2006,06,27,02,23,15.80
2006,06,27,02,24,15.80
2006,06,27,02,25,15.80
2006,06,27,02,26,15.70
2006,06,27,02,27,15.70
2006,06,27,02,28,15.60
2006,06,27,02,29,15.60
2006,06,27,02,30,15.60
2006,06,27,02,31,15.50
2006,06,27,02,32,15.50
2006,06,27,02,33,15.40
2006,06,27,02,34,15.40
2006,06,27,02,35,15.40
2006,06,27,02,36,15.40
2006,06,27,02,37,15.40
2006,06,27,02,38,15.30
2006,06,27,02,39,15.30
2006,06,27,02,40,15.30
2006,06,27,02,41,15.30
2006,06,27,02,42,15.30
2006,06,27,02,43,15.30
2006,06,27,02,44,15.30
2006,06,27,02,45,15.30
2006,06,27,02,46,15.40
2006,06,27,02,47,15.40
2006,06,27,02,48,15.40
2006,06,27,02,49,15.40
2006,06,27,02,50,15.40
2006,06,27,02,51,15.50
2006,06,27,02,52,15.50
2006,06,27,02,53,15.50
2006,06,27,02,54,15.60
2006,06,27,02,55,15.60
2006,06,27,02,56,15.60
2006,06,27,02,57,15.60
2006,06,27,02,58,15.50
2006,06,27,02,59,15.50
2006,06,27,03,00,15.50
2006,06,27,03,01,15.40
2006,06,27,03,02,15.40
2006,06,27,03,03,15.40
2006,06,27,03,04,15.40
2006,06,27,03,05,15.30
2006,06,27,03,06,15.30
2006,06,27,03,07,15.30
2006,06,27,03,08,15.20
2006,06,27,03,09,15.20
2006,06,27,03,10,15.20
2006,06,27,03,11,15.10
2006,06,27,03,12,15.10
2006,06,27,03,13,15.10
2006,06,27,03,14,15.00
2006,06,27,03,15,15.00
2006,06,27,03,16,15.00
2006,06,27,03,17,15.10
2006,06,27,03,18,15.10
2006,06,27,03,19,15.10
2006,06,27,03,20,15.10
2006,06,27,03,21,15.10
2006,06,27,03,22,15.10
2006,06,27,03,23,15.00
2006,06,27,03,24,15.00
2006,06,27,03,25,15.00
2006,06,27,03,26,15.00
2006,06,27,03,27,15.00
2006,06,27,03,28,15.00
2006,06,27,03,29,15.00
2006,06,27,03,30,15.00
2006,06,27,03,31,15.00
2006,06,27,03,32,15.00
2006,06,27,03,33,14.90
2006,06,27,03,34,14.90
2006,06,27,03,35,14.80
2006,06,27,03,36,14.80
2006,06,27,03,37,14.70
2006,06,27,03,38,14.70
2006,06,27,03,39,14.70
2006,06,27,03,40,14.60
2006,06,27,03,41,14.60
2006,06,27,03,42,14.60
2006,06,27,03,43,14.50
2006,06,27,03,44,14.50
2006,06,27,03,45,14.50
2006,06,27,03,46,14.40
2006,06,27,03,47,14.40
2006,06,27,03,48,14.40
2006,06,27,03,49,14.40
2006,06,27,03,50,14.30
2006,06,27,03,51,14.30
2006,06,27,03,52,14.30
2006,06,27,03,53,14.20
2006,06,27,03,54,14.20
2006,06,27,03,55,14.10
2006,06,27,03,56,14.10
2006,06,27,03,57,14.00
2006,06,27,03,58,14.00
2006,06,27,03,59,13.90
2006,06,27,04,00,13.90
2006,06,27,04,01,13.90
2006,06,27,04,02,13.90
2006,06,27,04,03,13.80
2006,06,27,04,04,13.80
2006,06,27,04,05,13.80
2006,06,27,04,06,13.70
2006,06,27,04,07,13.70
2006,06,27,04,08,13.70
2006,06,27,04,09,13.70
2006,06,27,04,10,13.70
2006,06,27,04,11,13.70
2006,06,27,04,12,13.70
2006,06,27,04,13,13.70
2006,06,27,04,14,13.60
2006,06,27,04,15,13.60
2006,06,27,04,16,13.60
2006,06,27,04,17,13.60
2006,06,27,04,18,13.60
2006,06,27,04,19,13.60
2006,06,27,04,20,13.60
2006,06,27,04,21,13.60
2006,06,27,04,22,13.60
2006,06,27,04,23,13.50
2006,06,27,04,24,13.50
2006,06,27,04,25,13.50
2006,06,27,04,26,13.50
2006,06,27,04,27,13.40
2006,06,27,04,28,13.40
2006,06,27,04,29,13.40
2006,06,27,04,30,13.40
2006,06,27,04,31,13.30
2006,06,27,04,32,13.30
2006,06,27,04,33,13.30
2006,06,27,04,34,13.30
2006,06,27,04,35,13.30
2006,06,27,04,36,13.30
2006,06,27,04,37,13.30
2006,06,27,04,38,13.30
2006,06,27,04,39,13.30
2006,06,27,04,40,13.30
2006,06,27,04,41,13.30
2006,06,27,04,42,13.30
2006,06,27,04,43,13.30
2006,06,27,04,44,13.30
2006,06,27,04,45,13.30
2006,06,27,04,46,13.30
2006,06,27,04,47,13.30
2006,06,27,04,48,13.30
2006,06,27,04,49,13.30
2006,06,27,04,50,13.30
2006,06,27,04,51,13.40
2006,06,27,04,52,13.40
2006,06,27,04,53,13.40
2006,06,27,04,54,13.40
2006,06,27,04,55,13.40
2006,06,27,04,56,13.30
2006,06,27,04,57,13.30
2006,06,27,04,58,13.20
2006,06,27,04,59,13.20
2006,06,27,05,00,13.10
2006,06,27,05,01,13.10
2006,06,27,05,02,13.00
2006,06,27,05,03,13.00
2006,06,27,05,04,12.90
2006,06,27,05,05,12.90
2006,06,27,05,06,12.90
2006,06,27,05,07,12.80
2006,06,27,05,08,12.80
2006,06,27,05,09,12.80
2006,06,27,05,10,12.80
2006,06,27,05,11,12.80
2006,06,27,05,12,12.80
2006,06,27,05,13,12.80
2006,06,27,05,14,12.80
2006,06,27,05,15,12.80
2006,06,27,05,16,12.80
2006,06,27,05,17,12.90
2006,06,27,05,18,12.90
2006,06,27,05,19,12.90
2006,06,27,05,20,12.90
2006,06,27,05,21,13.00
2006,06,27,05,22,13.00
2006,06,27,05,23,13.00
2006,06,27,05,24,13.00
2006,06,27,05,25,13.00
2006,06,27,05,26,13.00
2006,06,27,05,27,13.00
2006,06,27,05,28,13.10
2006,06,27,05,29,13.10
2006,06,27,05,30,13.10
2006,06,27,05,31,13.10
2006,06,27,05,32,13.20
2006,06,27,05,33,13.20
2006,06,27,05,34,13.20
2006,06,27,05,35,13.20
2006,06,27,05,36,13.20
2006,06,27,05,37,13.20
2006,06,27,05,38,13.30
2006,06,27,05,39,13.30
2006,06,27,05,40,13.30
2006,06,27,05,41,13.30
2006,06,27,05,42,13.30
2006,06,27,05,43,13.40
2006,06,27,05,44,13.40
2006,06,27,05,45,13.40
2006,06,27,05,46,13.40
2006,06,27,05,47,13.50
2006,06,27,05,48,13.50
2006,06,27,05,49,13.60
2006,06,27,05,50,13.60
2006,06,27,05,51,13.60
2006,06,27,05,52,13.50
2006,06,27,05,53,13.50
2006,06,27,05,54,13.50
2006,06,27,05,55,13.50
2006,06,27,05,56,13.40
2006,06,27,05,57,13.40
2006,06,27,05,58,13.40
2006,06,27,05,59,13.40
2006,06,27,06,00,13.40
2006,06,27,06,01,13.40
2006,06,27,06,02,13.40
2006,06,27,06,03,13.40
2006,06,27,06,04,13.50
2006,06,27,06,05,13.50
2006,06,27,06,06,13.60
2006,06,27,06,07,13.60
2006,06,27,06,08,13.70
2006,06,27,06,09,13.70
2006,06,27,06,10,13.80
2006,06,27,06,11,13.90
2006,06,27,06,12,13.90
2006,06,27,06,13,14.00
2006,06,27,06,14,14.10
2006,06,27,06,15,14.10
2006,06,27,06,16,14.30
2006,06,27,06,17,14.30
2006,06,27,06,18,14.50
2006,06,27,06,19,14.60
2006,06,27,06,20,14.70
2006,06,27,06,21,14.70
2006,06,27,06,22,14.80
2006,06,27,06,23,15.00
2006,06,27,06,24,15.00
2006,06,27,06,25,15.00
2006,06,27,06,26,15.00
2006,06,27,06,27,15.00
2006,06,27,06,28,15.00
2006,06,27,06,29,15.00
2006,06,27,06,30,15.10
2006,06,27,06,31,15.20
2006,06,27,06,32,15.20
2006,06,27,06,33,15.30
2006,06,27,06,34,15.30
2006,06,27,06,35,15.30
2006,06,27,06,36,15.30
2006,06,27,06,37,15.40
2006,06,27,06,38,15.40
2006,06,27,06,39,15.50
2006,06,27,06,40,15.50
2006,06,27,06,41,15.60
2006,06,27,06,42,15.60
2006,06,27,06,43,15.60
2006,06,27,06,44,15.60
2006,06,27,06,45,15.60
2006,06,27,06,46,15.70
2006,06,27,06,47,15.70
2006,06,27,06,48,15.70
2006,06,27,06,49,15.70
2006,06,27,06,50,15.60
2006,06,27,06,51,15.60
2006,06,27,06,52,15.60
2006,06,27,06,53,15.60
2006,06,27,06,54,15.60
2006,06,27,06,55,15.60
2006,06,27,06,56,15.60
2006,06,27,06,57,15.70
2006,06,27,06,58,15.80
2006,06,27,06,59,15.80
2006,06,27,07,00,15.90
2006,06,27,07,01,15.90
2006,06,27,07,02,16.00
2006,06,27,07,03,16.10
2006,06,27,07,04,16.20
2006,06,27,07,05,16.20
2006,06,27,07,06,16.30
2006,06,27,07,07,16.30
2006,06,27,07,08,16.30
2006,06,27,07,09,16.30
2006,06,27,07,10,16.30
2006,06,27,07,11,16.30
2006,06,27,07,12,16.30
2006,06,27,07,13,16.30
2006,06,27,07,14,16.30
2006,06,27,07,15,16.30
2006,06,27,07,16,16.30
2006,06,27,07,17,16.30
2006,06,27,07,18,16.40
2006,06,27,07,19,16.40
2006,06,27,07,20,16.40
2006,06,27,07,21,16.40
2006,06,27,07,22,16.40
2006,06,27,07,23,16.40
2006,06,27,07,24,16.40
2006,06,27,07,25,16.50
2006,06,27,07,26,16.60
2006,06,27,07,27,16.60
2006,06,27,07,28,16.70
2006,06,27,07,29,16.70
2006,06,27,07,30,16.80
2006,06,27,07,31,16.90
2006,06,27,07,32,16.90
2006,06,27,07,33,17.00
2006,06,27,07,34,17.00
2006,06,27,07,35,17.10
2006,06,27,07,36,17.20
2006,06,27,07,37,17.30
2006,06,27,07,38,17.40
2006,06,27,07,39,17.50
2006,06,27,07,40,17.50
2006,06,27,07,41,17.60
2006,06,27,07,42,17.70
2006,06,27,07,43,17.70
2006,06,27,07,44,17.80
2006,06,27,07,45,17.80
2006,06,27,07,46,17.80
2006,06,27,07,47,17.60
2006,06,27,07,48,17.60
2006,06,27,07,49,17.60
2006,06,27,07,50,17.60
2006,06,27,07,51,17.60
2006,06,27,07,52,17.60
2006,06,27,07,53,17.60
2006,06,27,07,54,17.60
2006,06,27,07,55,17.70
2006,06,27,07,56,17.70
2006,06,27,07,57,17.70
2006,06,27,07,58,17.80
2006,06,27,07,59,17.80
2006,06,27,08,00,17.90
2006,06,27,08,01,18.00
2006,06,27,08,02,18.00
2006,06,27,08,03,18.10
2006,06,27,08,04,18.10
2006,06,27,08,05,18.20
2006,06,27,08,06,18.20
2006,06,27,08,07,18.20
2006,06,27,08,08,18.30
2006,06,27,08,09,18.30
2006,06,27,08,10,18.40
2006,06,27,08,11,18.50
2006,06,27,08,12,18.50
2006,06,27,08,13,18.60
2006,06,27,08,14,18.60
2006,06,27,08,15,18.60
2006,06,27,08,16,18.70
2006,06,27,08,17,18.70
2006,06,27,08,18,18.80
2006,06,27,08,19,18.80
2006,06,27,08,20,18.90
2006,06,27,08,21,18.90
2006,06,27,08,22,18.90
2006,06,27,08,23,18.90
2006,06,27,08,24,18.90
2006,06,27,08,25,18.90
2006,06,27,08,26,18.90
2006,06,27,08,27,18.90
2006,06,27,08,28,19.00
2006,06,27,08,29,19.10
2006,06,27,08,30,19.10
2006,06,27,08,31,19.20
2006,06,27,08,32,19.30
2006,06,27,08,33,19.30
2006,06,27,08,34,19.40
2006,06,27,08,35,19.40
2006,06,27,08,36,19.40
2006,06,27,08,37,19.50
2006,06,27,08,38,19.40
2006,06,27,08,39,19.40
2006,06,27,08,40,19.40
2006,06,27,08,41,19.40
2006,06,27,08,42,19.40
2006,06,27,08,43,19.40
2006,06,27,08,44,19.40
2006,06,27,08,45,19.50
2006,06,27,08,46,19.50
2006,06,27,08,47,19.60
2006,06,27,08,48,19.60
2006,06,27,08,49,19.70
2006,06,27,08,50,19.80
2006,06,27,08,51,19.80
2006,06,27,08,52,19.90
2006,06,27,08,53,19.90
2006,06,27,08,54,19.90
2006,06,27,08,55,19.90
2006,06,27,08,56,20.00
2006,06,27,08,57,20.00
2006,06,27,08,58,20.10
2006,06,27,08,59,20.10
2006,06,27,09,00,20.10
2006,06,27,09,01,20.20
2006,06,27,09,02,20.10
2006,06,27,09,03,20.10
2006,06,27,09,04,20.10
2006,06,27,09,05,20.20
2006,06,27,09,06,20.20
2006,06,27,09,07,20.30
2006,06,27,09,08,20.40
2006,06,27,09,09,20.50
2006,06,27,09,10,20.60
2006,06,27,09,11,20.70
2006,06,27,09,12,20.70
2006,06,27,09,13,20.60
2006,06,27,09,14,20.50
2006,06,27,09,15,20.40
2006,06,27,09,16,20.50
2006,06,27,09,17,20.50
2006,06,27,09,18,20.50
2006,06,27,09,19,20.50
2006,06,27,09,20,20.50
2006,06,27,09,21,20.50
2006,06,27,09,22,20.50
2006,06,27,09,23,20.50
2006,06,27,09,24,20.60
2006,06,27,09,25,20.70
2006,06,27,09,26,20.70
2006,06,27,09,27,20.70
2006,06,27,09,28,20.80
2006,06,27,09,29,20.80
2006,06,27,09,30,20.80
2006,06,27,09,31,20.80
2006,06,27,09,32,20.80
2006,06,27,09,33,20.80
2006,06,27,09,34,20.80
2006,06,27,09,35,20.90
2006,06,27,09,36,20.80
2006,06,27,09,37,20.80
2006,06,27,09,38,20.80
2006,06,27,09,39,20.90
2006,06,27,09,40,20.90
2006,06,27,09,41,21.00
2006,06,27,09,42,21.00
2006,06,27,09,43,21.10
2006,06,27,09,44,21.10
2006,06,27,09,45,21.20
2006,06,27,09,46,21.20
2006,06,27,09,47,21.30
2006,06,27,09,48,21.40
2006,06,27,09,49,21.40
2006,06,27,09,50,21.50
2006,06,27,09,51,21.50
2006,06,27,09,52,21.50
2006,06,27,09,53,21.50
2006,06,27,09,54,21.50
2006,06,27,09,55,21.60
2006,06,27,09,56,21.60
2006,06,27,09,57,21.60
2006,06,27,09,58,21.60
2006,06,27,09,59,21.60
2006,06,27,10,00,21.60
2006,06,27,10,01,21.60
2006,06,27,10,02,21.60
2006,06,27,10,03,21.60
2006,06,27,10,04,21.60
2006,06,27,10,05,21.70
2006,06,27,10,06,21.80
2006,06,27,10,07,21.80
2006,06,27,10,08,21.80
2006,06,27,10,09,21.80
2006,06,27,10,10,21.80
2006,06,27,10,11,21.80
2006,06,27,10,12,21.80
2006,06,27,10,13,21.80
2006,06,27,10,14,21.70
2006,06,27,10,15,21.70
2006,06,27,10,16,21.80
2006,06,27,10,17,21.70
2006,06,27,10,18,21.60
2006,06,27,10,19,21.50
2006,06,27,10,20,21.30
2006,06,27,10,21,21.00
2006,06,27,10,22,20.80
2006,06,27,10,23,20.60
2006,06,27,10,24,20.50
2006,06,27,10,25,20.60
2006,06,27,10,26,20.70
2006,06,27,10,27,20.80
2006,06,27,10,28,20.80
2006,06,27,10,29,20.90
2006,06,27,10,30,21.00
2006,06,27,10,31,21.10
2006,06,27,10,32,21.20
2006,06,27,10,33,21.30
2006,06,27,10,34,21.20
2006,06,27,10,35,21.20
2006,06,27,10,36,21.10
2006,06,27,10,37,21.10
2006,06,27,10,38,21.10
2006,06,27,10,39,21.20
2006,06,27,10,40,21.30
2006,06,27,10,41,21.40
2006,06,27,10,42,21.50
2006,06,27,10,43,21.50
2006,06,27,10,44,21.50
2006,06,27,10,45,21.50
2006,06,27,10,46,21.50
2006,06,27,10,47,21.60
2006,06,27,10,48,21.60
2006,06,27,10,49,21.60
2006,06,27,10,50,21.50
2006,06,27,10,51,21.50
2006,06,27,10,52,21.40
2006,06,27,10,53,21.40
2006,06,27,10,54,21.50
2006,06,27,10,55,21.60
2006,06,27,10,56,21.60
2006,06,27,10,57,21.60
2006,06,27,10,58,21.60
2006,06,27,10,59,21.70
2006,06,27,11,00,21.80
2006,06,27,11,01,21.90
2006,06,27,11,02,22.00
2006,06,27,11,03,22.10
2006,06,27,11,04,22.20
2006,06,27,11,05,22.30
2006,06,27,11,06,22.40
2006,06,27,11,07,22.40
2006,06,27,11,08,22.40
2006,06,27,11,09,22.40
2006,06,27,11,10,22.30
2006,06,27,11,11,22.30
2006,06,27,11,12,22.30
2006,06,27,11,13,22.40
2006,06,27,11,14,22.40
2006,06,27,11,15,22.40
2006,06,27,11,16,22.30
2006,06,27,11,17,22.20
2006,06,27,11,18,22.00
2006,06,27,11,19,21.90
2006,06,27,11,20,21.80
2006,06,27,11,21,21.80
2006,06,27,11,22,21.80
2006,06,27,11,23,21.80
2006,06,27,11,24,21.90
2006,06,27,11,25,21.90
2006,06,27,11,26,21.90
2006,06,27,11,27,22.00
2006,06,27,11,28,22.10
2006,06,27,11,29,22.30
2006,06,27,11,30,22.40
2006,06,27,11,31,22.70
2006,06,27,11,32,22.90
2006,06,27,11,33,23.00
2006,06,27,11,34,23.00
2006,06,27,11,35,23.00
2006,06,27,11,36,23.00
2006,06,27,11,37,23.00
2006,06,27,11,38,23.00
2006,06,27,11,39,22.90
2006,06,27,11,40,22.70
2006,06,27,11,41,22.70
2006,06,27,11,42,22.60
2006,06,27,11,43,22.50
2006,06,27,11,44,22.60
2006,06,27,11,45,22.60
2006,06,27,11,46,22.60
2006,06,27,11,47,22.70
2006,06,27,11,48,22.70
2006,06,27,11,49,22.70
2006,06,27,11,50,22.70
2006,06,27,11,51,22.60
2006,06,27,11,52,22.50
2006,06,27,11,53,22.30
2006,06,27,11,54,22.20
2006,06,27,11,55,22.20
2006,06,27,11,56,22.10
2006,06,27,11,57,22.00
2006,06,27,11,58,21.80
2006,06,27,11,59,21.80
2006,06,27,12,00,21.80
2006,06,27,12,01,21.80
2006,06,27,12,02,21.80
2006,06,27,12,03,21.80
2006,06,27,12,04,22.00
2006,06,27,12,05,22.10
2006,06,27,12,06,22.30
2006,06,27,12,07,22.40
2006,06,27,12,08,22.50
2006,06,27,12,09,22.60
2006,06,27,12,10,22.70
2006,06,27,12,11,22.70
2006,06,27,12,12,22.80
2006,06,27,12,13,22.80
2006,06,27,12,14,22.90
2006,06,27,12,15,23.00
2006,06,27,12,16,23.20
2006,06,27,12,17,23.20
2006,06,27,12,18,23.30
2006,06,27,12,19,23.30
2006,06,27,12,20,23.20
2006,06,27,12,21,23.20
2006,06,27,12,22,23.20
2006,06,27,12,23,23.10
2006,06,27,12,24,23.00
2006,06,27,12,25,22.80
2006,06,27,12,26,22.60
2006,06,27,12,27,22.50
2006,06,27,12,28,22.40
2006,06,27,12,29,22.50
2006,06,27,12,30,22.60
2006,06,27,12,31,22.60
2006,06,27,12,32,22.70
2006,06,27,12,33,22.90
2006,06,27,12,34,23.10
2006,06,27,12,35,23.20
2006,06,27,12,36,23.40
2006,06,27,12,37,23.40
2006,06,27,12,38,23.40
2006,06,27,12,39,23.30
2006,06,27,12,40,23.00
2006,06,27,12,41,22.90
2006,06,27,12,42,22.80
2006,06,27,12,43,22.90
2006,06,27,12,44,23.00
2006,06,27,12,45,23.10
2006,06,27,12,46,23.00
2006,06,27,12,47,22.90
2006,06,27,12,48,22.80
2006,06,27,12,49,22.80
2006,06,27,12,50,22.90
2006,06,27,12,51,22.90
2006,06,27,12,52,22.80
2006,06,27,12,53,22.60
2006,06,27,12,54,22.50
2006,06,27,12,55,22.40
2006,06,27,12,56,22.40
2006,06,27,12,57,22.40
2006,06,27,12,58,22.50
2006,06,27,12,59,22.60
2006,06,27,13,00,22.70
2006,06,27,13,01,22.80
2006,06,27,13,02,22.80
2006,06,27,13,03,22.90
2006,06,27,13,04,22.80
2006,06,27,13,05,22.80
2006,06,27,13,06,22.90
2006,06,27,13,07,23.00
2006,06,27,13,08,23.10
2006,06,27,13,09,23.20
2006,06,27,13,10,23.30
2006,06,27,13,11,23.30
2006,06,27,13,12,23.30
2006,06,27,13,13,23.30
2006,06,27,13,14,23.30
2006,06,27,13,15,23.30
2006,06,27,13,16,23.20
2006,06,27,13,17,23.20
2006,06,27,13,18,23.30
2006,06,27,13,19,23.40
2006,06,27,13,20,23.60
2006,06,27,13,21,23.70
2006,06,27,13,22,23.80
2006,06,27,13,23,23.90
2006,06,27,13,24,23.90
2006,06,27,13,25,23.90
2006,06,27,13,26,23.90
2006,06,27,13,27,24.00
2006,06,27,13,28,24.10
2006,06,27,13,29,24.00
2006,06,27,13,30,23.90
2006,06,27,13,31,23.90
2006,06,27,13,32,23.90
2006,06,27,13,33,23.80
2006,06,27,13,34,23.70
2006,06,27,13,35,23.70
2006,06,27,13,36,23.60
2006,06,27,13,37,23.60
2006,06,27,13,38,23.60
2006,06,27,13,39,23.50
2006,06,27,13,40,23.20
2006,06,27,13,41,23.20
2006,06,27,13,42,23.10
2006,06,27,13,43,23.00
2006,06,27,13,44,22.90
2006,06,27,13,45,22.70
2006,06,27,13,46,22.60
2006,06,27,13,47,22.50
2006,06,27,13,48,22.50
2006,06,27,13,49,22.50
2006,06,27,13,50,22.50
2006,06,27,13,51,22.40
2006,06,27,13,52,22.40
2006,06,27,13,53,22.30
2006,06,27,13,54,22.40
2006,06,27,13,55,22.40
2006,06,27,13,56,22.50
2006,06,27,13,57,22.60
2006,06,27,13,58,22.80
2006,06,27,13,59,22.80
2006,06,27,14,00,22.90
2006,06,27,14,01,23.00
2006,06,27,14,02,23.10
2006,06,27,14,03,23.20
2006,06,27,14,04,23.20
2006,06,27,14,05,23.20
2006,06,27,14,06,23.20
2006,06,27,14,07,23.10
2006,06,27,14,08,22.90
2006,06,27,14,09,22.80
2006,06,27,14,10,22.70
2006,06,27,14,11,22.60
2006,06,27,14,12,22.40
2006,06,27,14,13,22.30
2006,06,27,14,14,22.30
2006,06,27,14,15,22.30
2006,06,27,14,16,22.30
2006,06,27,14,17,22.40
2006,06,27,14,18,22.30
2006,06,27,14,19,22.30
2006,06,27,14,20,22.30
2006,06,27,14,21,22.20
2006,06,27,14,22,22.30
2006,06,27,14,23,22.20
2006,06,27,14,24,22.20
2006,06,27,14,25,22.20
2006,06,27,14,26,22.20
2006,06,27,14,27,22.20
2006,06,27,14,28,22.30
2006,06,27,14,29,22.30
2006,06,27,14,30,22.20
2006,06,27,14,31,22.10
2006,06,27,14,32,21.90
2006,06,27,14,33,21.80
2006,06,27,14,34,21.80
2006,06,27,14,35,21.70
2006,06,27,14,36,21.70
2006,06,27,14,37,21.70
2006,06,27,14,38,21.60
2006,06,27,14,39,21.60
2006,06,27,14,40,21.40
2006,06,27,14,41,21.40
2006,06,27,14,42,21.50
2006,06,27,14,43,21.60
2006,06,27,14,44,21.60
2006,06,27,14,45,21.60
2006,06,27,14,46,21.70
2006,06,27,14,47,21.70
2006,06,27,14,48,21.70
2006,06,27,14,49,21.70
2006,06,27,14,50,21.70
2006,06,27,14,51,21.80
2006,06,27,14,52,21.80
2006,06,27,14,53,21.80
2006,06,27,14,54,21.80
2006,06,27,14,55,21.80
2006,06,27,14,56,21.80
2006,06,27,14,57,21.70
2006,06,27,14,58,21.70
2006,06,27,14,59,21.70
2006,06,27,15,00,21.70
2006,06,27,15,01,21.70
2006,06,27,15,02,21.70
2006,06,27,15,03,21.70
2006,06,27,15,04,21.70
2006,06,27,15,05,21.70
2006,06,27,15,06,21.70
2006,06,27,15,07,21.80
2006,06,27,15,08,21.90
2006,06,27,15,09,22.00
2006,06,27,15,10,22.10
2006,06,27,15,11,22.20
2006,06,27,15,12,22.20
2006,06,27,15,13,22.30
2006,06,27,15,14,22.30
2006,06,27,15,15,22.40
2006,06,27,15,16,22.40
2006,06,27,15,17,22.40
2006,06,27,15,18,22.50
2006,06,27,15,19,22.60
2006,06,27,15,20,22.60
2006,06,27,15,21,22.60
2006,06,27,15,22,22.60
2006,06,27,15,23,22.50
2006,06,27,15,24,22.50
2006,06,27,15,25,22.50
2006,06,27,15,26,22.50
2006,06,27,15,27,22.50
2006,06,27,15,28,22.60
2006,06,27,15,29,22.70
2006,06,27,15,30,22.80
2006,06,27,15,31,23.00
2006,06,27,15,32,23.20
2006,06,27,15,33,23.40
2006,06,27,15,34,23.50
2006,06,27,15,35,23.60
2006,06,27,15,36,23.70
2006,06,27,15,37,23.80
2006,06,27,15,38,24.00
2006,06,27,15,39,24.10
2006,06,27,15,40,24.10
2006,06,27,15,41,24.10
2006,06,27,15,42,24.00
2006,06,27,15,43,24.00
2006,06,27,15,44,24.10
2006,06,27,15,45,24.20
2006,06,27,15,46,24.20
2006,06,27,15,47,24.20
2006,06,27,15,48,24.20
2006,06,27,15,49,24.20
2006,06,27,15,50,24.30
2006,06,27,15,51,24.40
2006,06,27,15,52,24.40
2006,06,27,15,53,24.30
2006,06,27,15,54,24.10
2006,06,27,15,55,24.00
2006,06,27,15,56,24.00
2006,06,27,15,57,23.90
2006,06,27,15,58,23.70
2006,06,27,15,59,23.60
2006,06,27,16,00,23.50
2006,06,27,16,01,23.40
2006,06,27,16,02,23.30
2006,06,27,16,03,23.20
2006,06,27,16,04,23.00
2006,06,27,16,05,22.90
2006,06,27,16,06,22.80
2006,06,27,16,07,22.80
2006,06,27,16,08,22.70
2006,06,27,16,09,22.60
2006,06,27,16,10,22.60
2006,06,27,16,11,22.60
2006,06,27,16,12,22.50
2006,06,27,16,13,22.40
2006,06,27,16,14,22.40
2006,06,27,16,15,22.40
2006,06,27,16,16,22.40
2006,06,27,16,17,22.40
2006,06,27,16,18,22.40
2006,06,27,16,19,22.40
2006,06,27,16,20,22.40
2006,06,27,16,21,22.30
2006,06,27,16,22,22.30
2006,06,27,16,23,22.30
2006,06,27,16,24,22.30
2006,06,27,16,25,22.30
2006,06,27,16,26,22.30
2006,06,27,16,27,22.40
2006,06,27,16,28,22.50
2006,06,27,16,29,22.60
2006,06,27,16,30,22.70
2006,06,27,16,31,22.70
2006,06,27,16,32,22.80
2006,06,27,16,33,22.90
2006,06,27,16,34,22.90
2006,06,27,16,35,23.10
2006,06,27,16,36,23.10
2006,06,27,16,37,23.20
2006,06,27,16,38,23.30
2006,06,27,16,39,23.30
2006,06,27,16,40,23.30
2006,06,27,16,41,23.30
2006,06,27,16,42,23.30
2006,06,27,16,43,23.30
2006,06,27,16,44,23.20
2006,06,27,16,45,23.20
2006,06,27,16,46,23.20
2006,06,27,16,47,23.20
2006,06,27,16,48,23.30
2006,06,27,16,49,23.30
2006,06,27,16,50,23.30
2006,06,27,16,51,23.20
2006,06,27,16,52,23.20
2006,06,27,16,53,23.20
2006,06,27,16,54,23.30
2006,06,27,16,55,23.40
2006,06,27,16,56,23.60
2006,06,27,16,57,23.70
2006,06,27,16,58,23.70
2006,06,27,16,59,23.80
2006,06,27,17,00,23.70
2006,06,27,17,01,23.70
2006,06,27,17,02,23.70
2006,06,27,17,03,23.90
2006,06,27,17,04,24.10
2006,06,27,17,05,24.40
2006,06,27,17,06,24.60
2006,06,27,17,07,24.90
2006,06,27,17,08,25.20
2006,06,27,17,09,25.40
2006,06,27,17,10,25.50
2006,06,27,17,11,25.60
2006,06,27,17,12,25.70
2006,06,27,17,13,25.70
2006,06,27,17,14,25.70
2006,06,27,17,15,25.70
2006,06,27,17,16,25.70
2006,06,27,17,17,25.60
2006,06,27,17,18,25.40
2006,06,27,17,19,25.30